Hourly Data Report for October 02, 2017

All times are specified in Local Standard Time (LST). Add 1 hour to adjust for Daylight Saving Time where and when it is observed.

FORT CHIPEWYAN
ALBERTA

58°46'02.000" N
111°07'02.000" W
238.00 m
3072655
71305
YPY

Download Data

Hourly Data (October 2017)
Hourly Data Report for October 2, 2017
Temp Definition
°C
Dew Point Temp Definition
°C
Rel Hum Definition
%
Wind Dir Definition
10's deg

Wind Spd Definition
km/h
Visibility Definition
km
Stn Press Definition
kPa
Hmdx Definition


Wind Chill Definition


Weather Definition


TIME
00:00 Legend Double Dagger 3.2 2.9 98 34 13 3.6 99.38     Fog
01:00 Legend Double Dagger 3.2 2.6 96 34 11 6.4 99.42     Fog
02:00 Legend Double Dagger 2.9 1.9 93 35 17 16.1 99.46     LegendNANA
03:00 Legend Double Dagger 2.6 1.7 94 34 13 9.7 99.54     Rain,Fog
04:00 Legend Double Dagger 2.7 0.6 86 34 18 16.1 99.61     LegendNANA
05:00 Legend Double Dagger 1.8 -0.1 87 33 17 16.1 99.69     LegendNANA
06:00 Legend Double Dagger 0.0 -0.9 94 32 11 16.1 99.77   -4 LegendNANA
07:00 Legend Double Dagger -0.2 -1.2 93 32 11 16.1 99.83   -4 LegendNANA
08:00 Legend Double Dagger 1.0 -0.8 88 34 13 16.1 99.91     LegendNANA
09:00 Legend Double Dagger 2.8 -1.0 76 LegendMM LegendMM LegendMM 99.97     LegendNANA
10:00 Legend Double Dagger 4.2 -1.5 67 LegendMM LegendMM LegendMM 99.99     LegendNANA
11:00 Legend Double Dagger 5.6 -0.8 63 LegendMM LegendMM LegendMM 99.96     LegendNANA
12:00 Legend Double Dagger 5.8 -0.9 62 LegendMM LegendMM LegendMM 99.93     LegendNANA
13:00 Legend Double Dagger 6.8 -1.1 57 LegendMM LegendMM LegendMM 99.92     LegendNANA
14:00 Legend Double Dagger 7.4 -1.6 53 LegendMM LegendMM LegendMM 99.88     LegendNANA
15:00 Legend Double Dagger 8.2 -1.5 50 33 15 16.1 99.86     LegendNANA
16:00 Legend Double Dagger 8.3 -1.6 50 31 13 16.1 99.83     LegendNANA
17:00 Legend Double Dagger 7.7 -0.7 55 31 11 16.1 99.82     LegendNANA
18:00 Legend Double Dagger 5.4 -0.4 66 30 8 16.1 99.83     LegendNANA
19:00 Legend Double Dagger 2.2 -0.7 81 27 4 16.1 99.86     LegendNANA
20:00 Legend Double Dagger -0.1 -1.5 90   0 16.1 99.83     LegendNANA
21:00 Legend Double Dagger -1.2 -1.8 96   0 16.1 99.82     LegendNANA
22:00 Legend Double Dagger -1.8 -2.5 95 25 5 16.1 99.79   -4 LegendNANA
23:00 Legend Double Dagger -1.5 -1.9 97   0 16.1 99.73     LegendNANA

Notes on Data Quality.

Legend

  • E = Estimated
  • M = Missing
  • NA = Not Available
  • ‡ = Partner data that is not subject to review by the National Climate Archives
Date modified: